YAOGAN-30 A

导读 | 星芒AI

YAOGAN-30 A 是中国研制的一颗遥感卫星,主要用于科学实验、国土资源普查、环境监测及灾害预警等领域。该卫星属于遥感三十号系列,具备高分辨率对地观测能力,能够提供高质量的遥感数据。它通常与其他同系列卫星协同工作,提升数据获取的时效性和覆盖范围。YAOGAN-30 A 由长征系列运载火箭发射入轨,是中国在民用和科研遥感领域的重要组成部分。

基本信息
目录编号:
42945
目录名称:
YAOGAN-30 A
国际标识:
2017-058A
轨道中心:
EARTH
卫星名称:
YAOGAN-30 A
卫星全名:
--
卫星状态:
在轨 (已飞行2952 天)
发射日期:
2017-09-29 UTC
国别 :
中国 (CN)
星等 :
--
轨道信息
数据来源 国际轨道数据 AOE轨道数据
星历时间 2025-10-28T22:22:03+0800
16小时前
查看轨道信息
2025-10-23T10:00:00+0800
6天前
查看轨道信息
半长轴 6941.354km 6941.603km
偏心率 0.0002551 0.0001493
轨道倾角 34.999° 34.988°
近地点辐角 273.325° 156.542°
升交点赤经 359.866° 33.405°
平近点角 86.716° 229.455°
近地点 561.448km 562.431km
远地点 564.99km 564.505km
周期 95.924分钟 95.929分钟
每日圈数 15.011931 15.011121
详细信息
使用方式:
暂无
2D轨道图
3D轨道图
轨道高度分析图
轨道倾角分析图
轨道综合分析图
查看轨道综合分析图